Fairbanks Eiels, AK

3:24 AM AKST on November 19, 2019 (GMT -0900)
Eielson Air Force Base

Weather History for PAEI - October, 2019

Change the Weather History Date:

Monday, October 21, 2019

  Actual Average Record
Temperature  
Mean Temperature 24 °F -  
Max Temperature 33 °F 26 °F 54 °F (1957)
Min Temperature 15 °F 10 °F -13 °F (1965)
Degree Days  
Heating Degree Days 42    
Moisture  
Dew Point 19 °F    
Average Humidity 87    
Maximum Humidity 93    
Minimum Humidity 75    
Precipitation  
Precipitation 0.00 in - - ()
Snow  
Snow 0.00 in - - ()
Snow Depth 1.00 in    
Sea Level Pressure  
Sea Level Pressure 29.71 in    
Wind  
Wind Speed 0 mph (SSE)    
Max Wind Speed 7 mph    
Max Gust Speed -    
Visibility 10 miles    
Events Fog    
Averages and records for this station are not official NWS values.
T = Trace of Precipitation, MM = Missing Value Source: NWS Daily Summary

Daily Weather History Graph

Daily Weather History Graph

Search for Another Location

Airport or City:

Astronomy

Oct. 21, 2019 Rise Set
Actual Time 8:59 AM AKDT 6:05 PM AKDT
Civil Twilight 8:08 AM AKDT 6:56 PM AKDT
Nautical Twilight 7:11 AM AKDT 7:52 PM AKDT
Astronomical Twilight 6:14 AM AKDT 8:49 PM AKDT
Moon 11:06 PM AKDT (10/21) 5:55 PM AKDT (10/21)
Length of Visible Light 10h 48m
Length of Day
9h 06m
Waning Gibbous, 47% of the Moon is Illuminated
Oct 21
Waning Gibbous
Oct 27
New
Nov 4
First Quarter
Nov 12
Full
Nov 19
Last Quarter

Hourly Weather History & Observations

Time (AKDT) Temp. Windchill Dew Point Humidity Pressure Visibility Wind Dir Wind Speed Gust Speed Precip Events Conditions
12:56 AM 21.9 °F - 18.9 °F 88% 29.70 in 10.0 mi Calm Calm - N/A   Scattered Clouds
1:56 AM 22.1 °F - 19.4 °F 89% 29.69 in 10.0 mi Calm Calm - N/A   Mostly Cloudy
2:30 AM 19.4 °F - 15.8 °F 86% 29.70 in 10.0 mi Calm Calm - N/A   Overcast
2:56 AM 19.0 °F - 16.0 °F 88% 29.70 in 10.0 mi Calm Calm - N/A   Overcast
3:56 AM 22.5 °F - 20.1 °F 91% 29.68 in 10.0 mi Calm Calm - N/A   Overcast
4:56 AM 22.6 °F - 19.9 °F 89% 29.68 in 10.0 mi Calm Calm - N/A   Overcast
5:56 AM 21.6 °F - 18.5 °F 88% 29.68 in 10.0 mi Calm Calm - N/A   Mostly Cloudy
6:56 AM 16.3 °F 9.2 °F 12.9 °F 86% 29.69 in 10.0 mi SSE 4.6 mph - N/A   Partly Cloudy
7:56 AM 15.3 °F - 12.4 °F 88% 29.69 in 10.0 mi Calm Calm - N/A   Scattered Clouds
8:56 AM 18.1 °F - 14.9 °F 87% 29.69 in 10.0 mi Calm Calm - N/A   Scattered Clouds
9:39 AM 15.8 °F - 14.0 °F 93% 29.70 in 10.0 mi Calm Calm - N/A Fog Patches of Fog
9:56 AM 16.2 °F - 12.7 °F 86% 29.70 in 10.0 mi Calm Calm - N/A Fog Patches of Fog
10:56 AM 16.5 °F - 13.1 °F 86% 29.71 in 10.0 mi Calm Calm - N/A Fog Patches of Fog
11:06 AM 17.6 °F 8.2 °F 14.0 °F 86% 29.71 in 7.0 mi South 6.9 mph - N/A Fog Patches of Fog
11:26 AM 19.4 °F 11.5 °F 15.8 °F 86% 29.71 in 10.0 mi SSE 5.8 mph - N/A Fog Patches of Fog
11:56 AM 21.4 °F - 18.7 °F 89% 29.71 in 10.0 mi Calm Calm - N/A Fog Patches of Fog
12:56 PM 25.2 °F - 22.6 °F 90% 29.71 in 10.0 mi Calm Calm - N/A   Mostly Cloudy
1:56 PM 27.9 °F - 23.4 °F 83% 29.70 in 8.0 mi Calm Calm - N/A   Clear
2:56 PM 30.7 °F - 24.4 °F 77% 29.70 in 9.0 mi Calm Calm - N/A   Clear
3:56 PM 32.0 °F - 25.0 °F 75% 29.70 in 10.0 mi Calm Calm - N/A   Clear
4:56 PM 30.7 °F - 25.0 °F 79% 29.70 in 8.0 mi Calm Calm - N/A   Clear
5:56 PM 27.3 °F - 23.9 °F 87% 29.70 in 10.0 mi Calm Calm - N/A   Clear
6:56 PM 25.2 °F - 22.8 °F 91% 29.72 in 10.0 mi Calm Calm - N/A   Overcast
7:56 PM 25.7 °F - 22.3 °F 87% 29.72 in 10.0 mi Calm Calm - N/A   Overcast
8:11 PM 26.6 °F - 23.0 °F 86% 29.72 in 10.0 mi Calm Calm - N/A   Overcast
8:56 PM 25.7 °F - 21.6 °F 84% 29.73 in 10.0 mi Calm Calm - N/A   Overcast
9:56 PM 23.4 °F - 20.1 °F 87% 29.74 in 10.0 mi Calm Calm - N/A   Overcast
10:55 PM 21.2 °F - 18.5 °F 89% 29.74 in 10.0 mi Calm Calm - N/A   Overcast
10:56 PM 21.2 °F - 18.5 °F 89% 29.74 in 10.0 mi Calm Calm - N/A   Overcast
11:56 PM 21.9 °F - 18.7 °F 87% 29.75 in 10.0 mi Calm Calm - N/A   Overcast